This is the latest recevied weather packets stored in our database for station/object EA5JMY-13. If no packets are shown the sender has not sent any weather packets the latest 10 day(s).
| Time | Temp. | Humidity | Pressure | Rain* | Wind** | Luminosity | Snow |
|---|---|---|---|---|---|---|---|
| 1778083651 | 24.44° C | 41% | 1011.2 hPa | - | - | - | - |
| 1778083531 | 23.89° C | 41% | 1011.2 hPa | - | - | - | - |
| 1778083411 | 23.89° C | 41% | 1011.4 hPa | - | - | - | - |
| 1778083291 | 23.89° C | 41% | 1011.3 hPa | - | - | - | - |
| 1778083171 | 23.89° C | 41% | 1011.3 hPa | - | - | - | - |
| 1778083051 | 23.33° C | 42% | 1011.3 hPa | - | - | - | - |
| 1778082931 | 23.89° C | 41% | 1011.4 hPa | - | - | - | - |
| 1778082812 | 23.89° C | 41% | 1011.4 hPa | - | - | - | - |
| 1778082691 | 23.33° C | 41% | 1011.4 hPa | - | - | - | - |
| 1778082571 | 23.33° C | 41% | 1011.3 hPa | - | - | - | - |
| 1778082452 | 23.89° C | 41% | 1011.4 hPa | - | - | - | - |
| 1778082331 | 23.89° C | 41% | 1011.4 hPa | - | - | - | - |
| 1778082212 | 24.44° C | 40% | 1011.3 hPa | - | - | - | - |
| 1778082092 | 23.89° C | 41% | 1011.3 hPa | - | - | - | - |
| 1778081971 | 23.89° C | 41% | 1011.4 hPa | - | - | - | - |
| 1778081851 | 23.89° C | 41% | 1011.4 hPa | - | - | - | - |
| 1778081732 | 23.33° C | 42% | 1011.4 hPa | - | - | - | - |
| 1778081611 | 23.33° C | 42% | 1011.2 hPa | - | - | - | - |
| 1778081491 | 22.78° C | 44% | 1011.2 hPa | - | - | - | - |
| 1778081372 | 22.78° C | 43% | 1011.3 hPa | - | - | - | - |
| 1778081251 | 23.33° C | 42% | 1011.2 hPa | - | - | - | - |
| 1778081131 | 23.33° C | 41% | 1011.3 hPa | - | - | - | - |
| 1778081011 | 23.89° C | 41% | 1011.3 hPa | - | - | - | - |
| 1778080891 | 23.89° C | 41% | 1011.1 hPa | - | - | - | - |
| 1778080771 | 23.89° C | 41% | 1011 hPa | - | - | - | - |
* Rain since midnight (hover to see other rain measurements)
** Current wind speed in m/s (hover to see current wind gust speed)